Regional Weather Roundup
Issued by NWS Midland/Odessa, TX

Skip options and go directly to product.
Home | Oldest Version | Previous Version | Current Version | All | Text Only | Save Text | Print | Product List | Glossary On

Skip product version selection by date and time.   
605
ASUS44 KMAF 260010
RWRMAF
MIDLAND AREA WEATHER ROUNDUP
NATIONAL WEATHER SERVICE MIDLAND TX
700 PM CDT WED MAY 25 2016

...IN SOUTHWEST TEXAS AND SOUTHEAST NEW MEXICO...

CITY           SKY/WX    TMP DP  RH WIND       PRES   REMARKS
ALPINE         CLOUDY    89  32  13 SW14G26   30.08S
ANDREWS        FAIR      94  29  10 SW7       29.92F
ARTESIA        SUNNY     91  25   9 W20G30    29.92F
BIG SPRING     SUNNY     92  41  16 SE7       29.92S
CARLSBAD       SUNNY     94  22   7 SW15      29.89F
DRYDEN           N/A     84  74  71 E16       29.93S
FORT STOCKTON  CLOUDY    84  60  44 E14G24    29.93R
GUAD PASS      NOT AVBL
HOBBS          SUNNY     93  19   7 S16G23    29.94F
MARFA          SUNNY     86  34  15 SW12      30.07S
MIDLAND AIRPK  SUNNY     98  26   8 S7        29.90F
MIDLAND INTL   SUNNY     98  28   8 S13       29.90F
ODESSA         SUNNY     98  28   8 S15       29.91F
PECOS          CLOUDY    96  38  13 SE16      29.84F
PRESIDIO       FAIR      96  38  13 S9        29.91F
SEMINOLE       SUNNY     93  29  10 SW12G20   29.93F
SNYDER           N/A     94  39  14 SW6       29.90S
WINK           SUNNY     95  29   9 MISG      29.85F
$$
...OTHER STATIONS IN TEXAS...

CITY           SKY/WX    TMP DP  RH WIND       PRES   REMARKS
ABILENE        SUNNY     89  71  55 S18G25    29.89S
AMARILLO       SUNNY     87  27  11 SW20G26   29.91S
AUSTIN         CLOUDY    84  75  74 S13       29.93R
BROWNSVILLE    CLOUDY    84  77  79 SE15      29.92R
CORPUS CHRISTI CLOUDY    84  77  79 SE16      29.94R
DALLAS FTW     CLOUDY    85  74  69 S12       29.90S
DEL RIO        CLOUDY    85  76  74 SE10      29.90S HAZE
EL PASO        MOSUNNY   92  19   7 W17G30    29.92F
HOUSTON INT    CLOUDY    84  73  69 SE18      29.97F
LUBBOCK        SUNNY     91  23   8 SW17G33   29.91F
SAN ANGELO     CLOUDY    84  71  65 S18G28    29.90F
SAN ANTONIO    CLOUDY    86  74  67 SE15      29.93F
WACO           CLOUDY    84  74  71 S10       29.92F
WICHITA FALLS  NOT AVBL
$$
...OTHER LOCATIONS IN NEW MEXICO...

CITY           SKY/WX    TMP DP  RH WIND       PRES   REMARKS
ALAMAGORDO     SUNNY     86  21   9 SW9       29.95F
ALBUQUERQUE    CLOUDY    79  16   9 S20       29.95F
CANNON AFB     SUNNY     88  13   6 SW22G30   29.93F
CLOVIS         SUNNY     88  27  11 SW17      29.94F
HOLLOMAN AFB   MOSUNNY   88  19   8 SW22      29.93F
ROSWELL        SUNNY     92  20   7 SW26G32   29.90F
RUIDOSO          N/A     72  19  14 W21G35    30.15F
SANTA FE       SUNNY     75  15  10 W15G21    30.04F
TRUTH OR CONSE SUNNY     84  13   7 SW17G31   29.95F
TUCUMCARI      SUNNY     89  10   5 SW18      29.88F
$$

USA.gov is the U.S. government's official web portal to all federal, state and local government web resources and services.